Location: ???? ???? ?????
(31.2680°N, 31.7283°E)
Time: 18:57:32
(UTC+00:00)

Landsat 7 - Pass Details

Date: 13 July 2020
Orbit: 701 x 703 km, 98.1° (Epoch: 06 August)

Event Time Altitude Azimuth Distance (km) Brightness Sun altitude
Exits shadow 18:53:10 45° 107° (ESE) 950 4.1 -20.8°
Maximum altitude 18:53:57 50° 74° (ENE) 888 4.1 -20.9°
Drops below altitude 10° 18:58:32 10° 360° (N) 2,172 6.9 -21.7°
Sets 19:00:51 0° 355° (N) 3,093 7.9 -22.0°
